Simultaneous Nadir Overpasses (SNOs) Predictions

Prediction of SNOs between METOP-B and TERRA Satellite Orbit:

Table of predicted SNOs for the next 14.0 days since TLE Epoch: 11/15/2014
Index Date (METOP-B) Time (METOP-B) Lat,Lon (METOP-B) SZA (METOP-B ) Date (TERRA) Time (TERRA) Lat,Lon (TERRA) SZA (TERRA ) Distance(km) Time Diff (sec)
1 11/16/2014 09:27:13 -81.26, -95.40 76.99 11/16/2014 09:27:40 -81.27, -95.23 76.95 2.96 27
2 11/16/2014 10:17:52 81.28, 72.67 103.12 11/16/2014 10:17:06 81.28, 72.59 103.09 1.34 46
3 11/19/2014 05:01:38 -81.26, -29.16 76.35 11/19/2014 05:02:05 -81.26, -29.00 76.32 2.80 27
4 11/19/2014 05:52:17 81.27, 138.85 103.75 11/19/2014 05:51:31 81.27, 138.81 103.72 0.79 46
5 11/22/2014 00:36:03 -81.26, 37.40 75.72 11/22/2014 00:36:35 -81.26, 37.37 75.71 0.84 32
6 11
